Regional Weather Roundup
Issued by NWS

Home | Current Version | Previous Version | Text Only | Print | Product List | Glossary On
Versions: 1 2 3 4 5 6 7 8 9 10 11 12 13 14 15 16 17 18 19 20 21 22 23 24 25 26 27 28 29 30 31 32 33 34 35 36 37 38 39 40 41 42 43 44 45 46 47 48 49 50
000
ASUS45 KPSR 260610
RWRAZ

ARIZONA HOURLY REGIONAL WEATHER ROUNDUP
NATIONAL WEATHER SERVICE PHOENIX AZ
1100 PM MST MON JUL 25 2016

NOTE: FAIR INDICATES FEW OR NO CLOUDS BELOW 12,000 FEET WITH NO
SIGNIFICANT WEATHER AND/OR OBSTRUCTIONS TO VISIBILITY.

AZZ001>003-036-260700-
NORTHWEST ARIZONA

CITY           SKY/WX    TMP DP  RH WIND       PRES   REMARKS
BULLHEAD CITY  CLEAR    100  55  22 SW8       29.77R
KINGMAN        CLEAR     84  53  34 SE18      30.02S
6HR MIN TEMP:  82; 6HR MAX TEMP: 101;

$$

AZZ004>008-015-016-018-260700-
NORTH CENTRAL ARIZONA

CITY           SKY/WX    TMP DP  RH WIND       PRES   REMARKS
GRAND CANYON   MOCLDY    67  48  50 NE8       30.34R
6HR MIN TEMP:  64; 6HR MAX TEMP:  79;

WILLIAMS       CLOUDY    64  54  68 VRB5      30.38F
PRESCOTT       CLOUDY    66  62  87 NW5       30.18R
6HR MIN TEMP:  66; 6HR MAX TEMP:  73; 6HR PCP:  0.04;

FLAGSTAFF      CLOUDY    57  56  96 CALM      30.36R
6HR MIN TEMP:  57; 6HR MAX TEMP:  62; 6HR PCP:  0.05;

PAYSON         MOCLDY    73  54  49 VRB5      30.20S
PAGE           CLOUDY    87  47  24 S10G20    30.09S
6HR MIN TEMP:  87; 6HR MAX TEMP: 100; 6HR PCP: TRACE;

$$

AZZ009>014-017-260700-
NORTHEAST ARIZONA

CITY           SKY/WX    TMP DP  RH WIND       PRES   REMARKS
WINSLOW        MOCLDY    73  49  42 S6        30.19S
6HR MIN TEMP:  72; 6HR MAX TEMP:  88;

SAINT JOHNS    CLOUDY    72  51  47 S6        30.24R
6HR MIN TEMP:  72; 6HR MAX TEMP:  87;

WINDOW ROCK    CLOUDY    68  55  63 SW6       30.34R
6HR MIN TEMP:  67; 6HR MAX TEMP:  76; 6HR PCP: TRACE;

SHOW LOW       CLOUDY    68  50  52 CALM      30.30F
$$

AZZ023-260700-
GREATER PHOENIX AREA

CITY           SKY/WX    TMP DP  RH WIND       PRES   REMARKS
PHOENIX        PTCLDY    97  54  23 CALM      29.81F
6HR MIN TEMP:  97; 6HR MAX TEMP: 107;

BUCKEYE        CLOUDY    90  57  33 S8        29.83F
DEER VALLEY    PTCLDY    93  50  23 SE3       29.83F
6HR MIN TEMP:  93; 6HR MAX TEMP: 107;

SCOTTSDALE     CLEAR     96  51  21 NE6       29.85F
6HR MIN TEMP:  95; 6HR MAX TEMP: 106;

MESA-GATEWAY   PTCLDY    91  55  29 NW6       29.85S
$$

AZZ027-028-260700-
SOUTHWEST MARICOPA COUNTY AND PINAL COUNTY

CITY           SKY/WX    TMP DP  RH WIND       PRES   REMARKS
CASA GRANDE    PTCLDY    93  55  27 N12       29.88S
6HR MIN TEMP:  93; 6HR MAX TEMP: 104;

GILA BEND      CLEAR     96  54  23 N5        29.80F
6HR MIN TEMP:  96; 6HR MAX TEMP: 107;

$$

AZZ503-504-507>509-260700-
SOUTHEAST ARIZONA

CITY           SKY/WX    TMP DP  RH WIND       PRES   REMARKS
TUCSON         CLEAR     93  56  28 NW5       29.96S
6HR MIN TEMP:  92; 6HR MAX TEMP: 102;

DAVIS-MONTHAN  MOCLDY    91  56  30 NW7       29.94S
6HR MIN TEMP:  91; 6HR MAX TEMP: 100;

NOGALES        CLEAR     78  58  49 NE3       30.05F
6HR MIN TEMP:  78; 6HR MAX TEMP:  96;

SIERRA VISTA   CLEAR     81  55  41 W8        30.13S
6HR MIN TEMP:  81; 6HR MAX TEMP:  92; 6HR PCP: TRACE;

DOUGLAS        MOCLDY    77  64  64 NE5       30.06F
6HR MIN TEMP:  75; 6HR MAX TEMP:  90;

SAFFORD        MOCLDY    89  54  30 E3        29.97R
6HR MIN TEMP:  89; 6HR MAX TEMP: 101;

$$

AZZ020-021-025-026-031-260700-
SOUTHWEST ARIZONA

CITY           SKY/WX    TMP DP  RH WIND       PRES   REMARKS
YUMA           TSTM      92  64  39 SE12      29.80R
$$

CAZ031-033-041-043-047-048-061-260700-
SOUTHERN CALIFORNIA

CITY           SKY/WX    TMP DP  RH WIND       PRES   REMARKS
DOWNTOWN L.A.  PTCLDY    73  65  75 W5        29.91S
6HR MIN TEMP:  71; 6HR MAX TEMP:  84;

L.A. AIRPORT   MOCLDY    69  65  86 W8        29.91F
6HR MIN TEMP:  69; 6HR MAX TEMP:  78;

SAN DIEGO      PTCLDY    68  66  93 W6        29.93S
6HR MIN TEMP:  68; 6HR MAX TEMP:  75;

BURBANK        PTCLDY    76  56  49 SE6       29.91S
6HR MIN TEMP:  76; 6HR MAX TEMP:  94;

ONTARIO        PTCLDY    77  59  53 W7        29.93S
6HR MIN TEMP:  77; 6HR MAX TEMP:  96;

RIVERSIDE      PTCLDY    77  60  55 W5        29.93S
6HR MIN TEMP:  77; 6HR MAX TEMP:  98;

PALM SPRINGS   PTCLDY    98  55  23 VRB3      29.80R
6HR MIN TEMP:  97; 6HR MAX TEMP: 107;

EL CENTRO NAS  PTCLDY    95  60  31 S6        29.76S
6HR MIN TEMP:  95; 6HR MAX TEMP: 108;

IMPERIAL       CLEAR     97  64  33 S7        29.74R
6HR MIN TEMP:  97; 6HR MAX TEMP: 111;

BLYTHE         PTCLDY    97  66  36 SE13      29.79R HX 100
6HR MIN TEMP:  96; 6HR MAX TEMP: 112;

NEEDLES        PTCLDY   103  55  20 SW15      29.77S HX 101
6HR MIN TEMP: 103; 6HR MAX TEMP: 113;

$$

NVZ020-UTZ003-260700-
SOUTHERN NEVADA-UTAH

CITY           SKY/WX    TMP DP  RH WIND       PRES   REMARKS
LAS VEGAS      PTCLDY    98  38  12 S5        29.81S
6HR MIN TEMP:  98; 6HR MAX TEMP: 110;

SALT LAKE CITY PTCLDY    85  38  18 SE6       30.02R
6HR MIN TEMP:  83; 6HR MAX TEMP: 101;

$$

NMZ009-TXZ055-260700-
NEW MEXICO-WEST TEXAS

CITY           SKY/WX    TMP DP  RH WIND       PRES   REMARKS
ALBUQUERQUE    CLOUDY    75  56  51 E25G37    30.25R
6HR MIN TEMP:  75; 6HR MAX TEMP:  92;

EL PASO        PTCLDY    89  48  24 E13       30.04R
6HR MIN TEMP:  89; 6HR MAX TEMP:  99;

$$


........................KEY........................
SKY/WX - SKY CONDITION/WEATHER
TMP    - TEMPERATURE IN FAHRENHEIT
DP     - DEW POINT IN FAHRENHEIT
RH     - RELATIVE HUMIDITY IN PERCENT
WIND   - DIRECTION AND SPEED IN MILES PER HOUR (MPH)
VRB    - VARIABLE WIND DIRECTION
PRES   - MEAN SEA LEVEL PRESSURE IN INCHES OF MERCURY
         F - FALLING PRESSURE   R - RISING PRESSURE
         S - STEADY PRESSURE
VSB    - VISIBILITY IN MILES
HX     - HEAT INDEX IN FAHRENHEIT
WCI    - WIND CHILL INDEX IN FAHRENHEIT
TC     - TEMPERATURE IN CELSIUS WHICH IS ALSO KNOWN AS
         TEMPERATURE IN CENTIGRADE
AFB    - AIR FORCE BASE
         LUKE AFB IS LUKE AIR FORCE BASE
         DAVIS-MONTHAN IS DAVIS-MONTHAN AIR FORCE BASE
NAS    - NAVAL AIR STATION
         EL CENTRO NAS IS EL CENTRO NAVAL AIR STATION
N/A    - NOT AVAILABLE




USA.gov is the U.S. government's official web portal to all federal, state and local government web resources and services.